CW3821 Weather Reports


Display with metric or nautical units.
time (UTC)temp
F
wind
direction
speed
MPH
gust
MPH
rain 1hr
in
rain 24hr
in
rain mn
in
humidity
%
barometer
mb
20180625081858 52 268 1.0 2.0 0.00 0.30 0.00 91 1018.3
20180625081356 52 268 0.0 0.0 0.00 0.30 0.00 90 1018.3
20180625080853 52 268 0.0 0.0 0.00 0.30 0.00 88 1018.3
20180625080355 52 268 0.0 0.0 0.00 0.30 0.00 88 1018.5
20180625075819 53 268 0.0 0.0 0.00 0.30 0.00 87 1018.5
20180625075314 53 268 0.0 0.0 0.00 0.30 0.00 86 1018.5
20180625074809 53 268 0.0 0.0 0.00 0.30 0.00 86 1018.5
20180625074324 54 268 0.0 2.0 0.00 0.30 0.00 84 1018.5
20180625073819 54 268 0.0 2.0 0.00 0.30 0.00 83 1018.5
20180625073315 54 268 1.0 2.0 0.00 0.30 0.00 81 1017.9
20180625072809 55 268 0.0 0.0 0.00 0.30 0.00 80 1017.9
20180625072325 55 268 0.0 2.0 0.00 0.30 0.00 78 1017.9
20180625071819 55 268 0.0 3.0 0.00 0.30 0.00 78 1018.0
20180625071314 55 268 1.0 3.0 0.00 0.30 0.00 78 1018.0
20180625070808 55 268 2.0 5.0 0.00 0.30 0.00 77 1018.0
20180625070323 55 268 2.0 5.0 0.00 0.30 0.00 78 1018.0
20180625065814 55 267 2.0 5.0 0.00 0.30 0.00 78 1018.0
20180625065307 55 277 3.0 5.0 0.00 0.30 0.00 78 1018.0
20180625064821 55 277 3.0 6.0 0.00 0.30 0.00 79 1018.2
20180625064317 55 277 2.0 7.0 0.00 0.30 0.00 79 1018.2
20180625063812 55 277 4.0 7.0 0.00 0.30 0.00 79 1018.2
20180625063306 55 270 2.0 6.0 0.00 0.30 0.00 80 1018.3
20180625062821 55 272 2.0 5.0 0.00 0.30 0.00 80 1018.3
20180625062314 55 272 3.0 6.0 0.00 0.30 0.00 80 1018.3
20180625061807 55 274 3.0 6.0 0.00 0.30 0.00 80 1019.0
20180625061321 55 274 1.0 4.0 0.00 0.30 0.00 81 1019.0
20180625060817 56 274 3.0 6.0 0.00 0.30 0.00 79 1019.0
20180625060313 56 294 3.0 6.0 0.00 0.30 0.00 79 1019.2
20180625055820 56 268 2.0 3.0 0.00 0.30 0.00 80 1019.2
20180625055325 56 267 2.0 3.0 0.00 0.30 0.00 80 1019.2
20180625054310 56 284 1.0 2.0 0.00 0.30 0.30 82 1019.1
20180625053904 55 284 0.0 2.0 0.00 0.30 0.30 83 1019.1
20180625053348 55 284 1.0 2.0 0.00 0.30 0.30 83 1019.9
20180625052827 56 284 0.0 0.0 0.00 0.30 0.30 84 1019.9
20180625051806 56 284 0.0 0.0 0.00 0.30 0.30 82 1019.9
20180625051400 57 284 0.0 0.0 0.00 0.30 0.30 81 1019.9
20180625050848 57 284 0.0 0.0 0.00 0.30 0.30 80 1019.9
20180625050352 57 284 0.0 2.0 0.00 0.30 0.30 79 1019.4
20180625045829 58 284 1.0 3.0 0.00 0.30 0.30 78 1019.4
20180625045334 58 284 2.0 7.0 0.00 0.30 0.30 77 1019.4
20180625044837 57 299 5.0 7.0 0.00 0.30 0.30 79 1019.9
20180625044345 57 295 0.0 3.0 0.00 0.30 0.30 79 1019.9
20180625043856 58 295 2.0 3.0 0.00 0.30 0.30 79 1019.9
20180625043405 58 295 3.0 3.0 0.00 0.30 0.30 78 1020.0
20180625042809 58 295 2.0 3.0 0.00 0.30 0.30 79 1020.0
20180625042309 58 295 3.0 3.0 0.00 0.30 0.30 78 1020.0
20180625041812 58 295 2.0 2.0 0.00 0.30 0.30 78 1020.0
20180625041317 58 295 2.0 2.0 0.00 0.30 0.30 78 1020.0
20180625040823 58 295 0.0 2.0 0.00 0.30 0.30 78 1020.0
20180625035850 58 295 2.0 3.0 0.00 0.30 0.30 78 1019.7
20180625035357 58 298 2.0 2.0 0.00 0.30 0.30 77 1019.7
20180625034854 58 299 2.0 2.0 0.00 0.30 0.30 75 1019.6
20180625034335 59 299 2.0 3.0 0.00 0.30 0.30 75 1019.6
20180625033821 59 309 2.0 3.0 0.00 0.30 0.30 74 1019.6
20180625032808 60 18 0.0 1.0 0.00 0.30 0.30 72 1019.8
20180625032401 60 18 0.0 2.0 0.00 0.30 0.30 72 1019.8
20180625031901 59 18 2.0 2.0 0.00 0.30 0.30 72 1018.8
20180625031400 59 18 2.0 2.0 0.00 0.30 0.30 74 1018.8
20180625030901 59 20 0.0 2.0 0.00 0.30 0.30 76 1018.8
20180625030356 59 20 2.0 2.0 0.00 0.30 0.30 77 1018.8
20180625025842 59 21 1.0 1.0 0.00 0.30 0.30 80 1018.8
20180625025350 59 21 0.0 0.0 0.00 0.30 0.30 86 1018.8
20180625024900 60 21 0.0 0.0 0.00 0.30 0.30 85 1018.3
20180625024401 60 21 0.0 2.0 0.00 0.30 0.30 86 1018.3
20180625023900 59 21 1.0 2.0 0.00 0.30 0.30 88 1018.3
20180625023403 59 21 0.0 2.0 0.00 0.30 0.30 100 1018.3
20180625022807 59 23 1.0 2.0 0.00 0.30 0.30 100 1018.3
20180625022314 59 25 1.0 5.0 0.00 0.30 0.30 100 1018.3
20180625021824 59 25 2.0 5.0 0.00 0.30 0.30 100 1018.2
20180625021332 59 328 2.0 3.0 0.00 0.30 0.30 100 1018.2
20180625020347 58 25 3.0 7.0 0.00 0.30 0.30 100 1019.0
20180625015354 57 21 4.0 11.0 0.00 0.30 0.30 100 1019.0
20180625014842 57 16 4.0 11.0 0.00 0.30 0.30 100 1018.6
20180625014331 57 23 4.0 8.0 0.00 0.30 0.30 100 1018.6
20180625013836 56 32 6.0 8.0 0.00 0.30 0.30 100 1018.6
20180625012854 57 17 2.0 11.0 0.00 0.30 0.30 100 1018.6
20180625012337 57 18 8.0 11.0 0.00 0.30 0.30 100 1018.6
20180625011826 57 49 7.0 8.0 0.00 0.30 0.30 100 1017.6
20180625011312 58 23 5.0 7.0 0.00 0.30 0.30 100 1017.6
20180625010815 58 21 4.0 5.0 0.00 0.30 0.30 100 1017.6
20180625010311 59 52 2.0 5.0 0.00 0.30 0.30 100 1017.8
20180625005904 59 13 3.0 5.0 0.00 0.30 0.30 100 1017.8
20180625005405 59 186 0.0 0.0 0.00 0.30 0.30 100 1017.8
20180625004807 59 189 0.0 3.0 0.00 0.30 0.30 100 1017.6
20180625004315 59 189 1.0 3.0 0.00 0.30 0.30 100 1017.6
20180625003823 59 191 2.0 2.0 0.00 0.30 0.30 100 1017.6
20180625003333 60 191 1.0 2.0 0.00 0.30 0.30 100 1017.6
20180625002835 59 191 0.0 2.0 0.00 0.30 0.30 100 1017.6
20180625001807 59 191 2.0 3.0 0.00 0.30 0.30 100 1017.5
20180625001314 59 198 2.0 3.0 0.00 0.30 0.30 100 1017.5
20180625000822 59 140 1.0 4.0 0.00 0.30 0.30 100 1017.5
20180625000323 59 138 2.0 4.0 0.00 0.30 0.30 100 1017.7
20180624235902 59 186 3.0 4.0 0.00 0.30 0.30 100 1017.7
20180624235343 59 147 3.0 4.0 0.00 0.30 0.30 100 1017.7
20180624234841 59 322 0.0 6.0 0.00 0.30 0.30 100 1017.7
20180624234324 59 8 3.0 6.0 0.00 0.30 0.30 100 1017.7
20180624233811 59 42 3.0 4.0 0.00 0.30 0.30 100 1017.7
20180624233314 60 229 0.0 5.0 0.00 0.30 0.30 100 1017.9
20180624232822 60 234 3.0 5.0 0.00 0.30 0.30 100 1017.9
20180624232328 59 240 1.0 3.0 0.00 0.30 0.30 100 1017.9
20180624231831 60 256 2.0 3.0 0.00 0.30 0.30 100 1017.4
20180624230807 58 332 3.0 5.0 0.00 0.30 0.30 100 1017.4
20180624230306 59 284 1.0 5.0 0.00 0.30 0.30 100 1017.7
20180624225905 59 17 0.0 1.0 0.00 0.30 0.30 100 1017.7
20180624225307 58 20 1.0 2.0 0.00 0.30 0.30 100 1017.7
20180624224811 58 167 2.0 4.0 0.00 0.30 0.30 100 1017.7
20180624224312 57 73 3.0 4.0 0.00 0.30 0.30 100 1017.7
20180624223815 57 304 1.0 4.0 0.00 0.30 0.30 100 1017.7
20180624223320 57 306 1.0 6.0 0.00 0.30 0.30 100 1018.0
20180624222309 57 267 3.0 3.0 0.00 0.30 0.30 100 1018.0
20180624221816 57 248 0.0 2.0 0.00 0.30 0.30 100 1017.4
20180624221314 56 272 0.0 5.0 0.00 0.30 0.30 100 1017.4
20180624220904 55 291 2.0 5.0 0.00 0.30 0.30 100 1017.4
20180624220347 55 332 2.0 3.0 0.00 0.30 0.30 100 1017.7
20180624215354 55 188 0.0 6.0 0.00 0.30 0.30 100 1017.7
20180624214844 54 189 0.0 5.0 0.00 0.30 0.30 100 1017.6
20180624214344 54 134 1.0 3.0 0.00 0.30 0.30 100 1017.6
20180624213846 54 113 1.0 4.0 0.00 0.30 0.30 100 1017.6
20180624213331 54 83 3.0 4.0 0.00 0.30 0.30 100 1017.9
20180624212834 54 73 3.0 4.0 0.00 0.30 0.30 100 1017.9
20180624212342 54 78 3.0 6.0 0.00 0.30 0.30 100 1017.9
20180624211851 54 113 3.0 6.0 0.00 0.30 0.30 100 1017.7
20180624211353 54 68 2.0 8.0 0.00 0.30 0.30 100 1017.7
20180624210859 54 92 5.0 8.0 0.00 0.30 0.30 100 1017.7
20180624210355 54 37 6.0 7.0 0.00 0.30 0.30 100 1017.5
20180624205828 54 1 2.0 5.0 0.00 0.30 0.30 100 1017.5
20180624204809 55 11 7.0 11.0 0.00 0.30 0.30 100 1016.9
20180624204401 55 52 6.0 11.0 0.00 0.30 0.30 100 1016.9
20180624203850 55 332 3.0 11.0 0.00 0.30 0.30 100 1016.9
20180624203354 55 4 8.0 11.0 0.00 0.30 0.30 100 1016.8
20180624202835 55 359 3.0 8.0 0.00 0.30 0.30 100 1016.8
20180624202317 55 350 6.0 8.0 0.01 0.30 0.30 100 1016.8
20180624201821 55 20 3.0 6.0 0.01 0.30 0.30 100 1016.1
20180624201328 55 20 6.0 6.0 0.01 0.30 0.30 100 1016.1
20180624200834 55 32 3.0 6.0 0.05 0.30 0.30 100 1016.1
20180624200342 55 323 4.0 8.0 0.19 0.30 0.30 100 1016.2
20180624195821 55 347 5.0 8.0 0.19 0.30 0.30 100 1016.2
20180624195322 55 319 1.0 7.0 0.19 0.30 0.30 100 1016.2
20180624194826 55 313 4.0 7.0 0.19 0.30 0.30 100 1016.1
20180624193810 55 337 0.0 6.0 0.19 0.30 0.30 100 1016.1
20180624193319 54 45 3.0 6.0 0.19 0.30 0.30 100 1016.7
20180624192825 54 24 5.0 12.0 0.19 0.30 0.30 100 1016.7
20180624192327 54 32 6.0 12.0 0.18 0.29 0.29 100 1016.7
20180624191857 55 21 5.0 9.0 0.18 0.29 0.29 100 1017.1
20180624191339 55 360 4.0 18.0 0.18 0.29 0.29 100 1017.1
20180624190815 55 337 12.0 18.0 0.17 0.28 0.28 100 1017.1
20180624190313 58 315 15.0 18.0 0.00 0.11 0.11 100 1015.1
20180624185807 59 13 2.0 2.0 0.01 0.11 0.11 100 1015.1
20180624185310 60 13 0.0 1.0 0.03 0.11 0.11 100 1015.1
20180624184809 60 13 0.0 1.0 0.05 0.11 0.11 100 1015.1
20180624184310 60 13 0.0 0.0 0.11 0.11 0.11 100 1015.1
20180624183816 60 13 0.0 0.0 0.11 0.11 0.11 100 1015.1
20180624183405 60 13 0.0 0.0 0.11 0.11 0.11 100 1013.8
20180624182807 60 13 0.0 3.0 0.11 0.11 0.11 100 1013.8
20180624182401 59 13 1.0 3.0 0.11 0.11 0.11 100 1013.8
20180624181848 58 11 2.0 3.0 0.11 0.11 0.11 100 1014.6
20180624181333 58 11 1.0 3.0 0.11 0.11 0.11 100 1014.6
20180624180814 58 11 1.0 2.0 0.11 0.11 0.11 100 1014.6
20180624180311 58 11 1.0 2.0 0.11 0.11 0.11 100 1015.1
20180624175904 57 11 1.0 3.0 0.11 0.11 0.11 100 1015.1
20180624175307 57 11 2.0 4.0 0.08 0.08 0.08 100 1015.1
20180624174814 57 4 3.0 4.0 0.07 0.07 0.07 51 1014.9
20180624174319 66 25 1.0 2.0 0.00 0.00 0.00 49 1014.9
20180624173820 66 40 1.0 7.0 0.00 0.00 0.00 47 1014.9
20180624173323 66 27 4.0 7.0 0.00 0.00 0.00 47 1014.4
20180624172829 67 35 4.0 6.0 0.00 0.00 0.00 47 1014.4
20180624172334 67 64 2.0 6.0 0.00 0.00 0.00 46 1014.4
20180624171842 67 103 4.0 6.0 0.00 0.00 0.00 46 1015.2
20180624171350 68 110 1.0 3.0 0.00 0.00 0.00 45 1015.2
20180624170856 68 119 3.0 5.0 0.00 0.00 0.00 45 1015.2
20180624170356 68 133 3.0 5.0 0.00 0.00 0.00 45 1015.3
20180624165314 67 114 2.0 4.0 0.00 0.00 0.00 47 1015.3
20180624164821 68 37 3.0 4.0 0.00 0.00 0.00 45 1015.5
20180624163853 68 282 4.0 5.0 0.00 0.00 0.00 44 1015.5
20180624163354 68 304 3.0 7.0 0.00 0.00 0.00 45 1015.2
20180624162833 69 62 4.0 7.0 0.00 0.00 0.00 43 1015.2
20180624161858 69 330 2.0 4.0 0.00 0.00 0.00 44 1015.4
20180624161345 69 75 3.0 6.0 0.00 0.00 0.00 44 1015.4
20180624160835 68 96 2.0 6.0 0.00 0.00 0.00 47 1015.4
20180624155853 68 34 2.0 6.0 0.00 0.00 0.00 46 1015.2
20180624155353 67 21 2.0 6.0 0.00 0.00 0.00 48 1015.2
20180624154856 66 182 4.0 5.0 0.00 0.00 0.00 48 1015.2
20180624154404 66 123 2.0 7.0 0.00 0.00 0.00 47 1015.2
20180624153806 67 103 7.0 10.0 0.00 0.00 0.00 48 1015.2
20180624153315 67 88 3.0 10.0 0.00 0.00 0.00 47 1015.2
20180624152825 66 151 1.0 3.0 0.00 0.00 0.00 48 1015.2
20180624152325 66 117 2.0 6.0 0.00 0.00 0.00 49 1015.2
20180624151827 65 121 2.0 6.0 0.00 0.00 0.00 51 1015.5
20180624151330 65 189 2.0 6.0 0.00 0.00 0.00 52 1015.5
20180624150838 65 138 4.0 6.0 0.00 0.00 0.00 51 1015.5
20180624150347 65 165 1.0 5.0 0.00 0.00 0.00 53 1014.8
20180624145308 65 147 3.0 3.0 0.00 0.00 0.00 53 1014.8
20180624144811 64 171 0.0 6.0 0.00 0.00 0.00 53 1014.9
20180624144314 64 127 3.0 6.0 0.00 0.00 0.00 53 1014.9
20180624143906 64 151 0.0 6.0 0.00 0.00 0.00 53 1014.9
20180624143353 64 198 2.0 6.0 0.00 0.00 0.00 53 1015.2
20180624142840 63 143 3.0 6.0 0.00 0.00 0.00 56 1015.2
20180624142329 63 143 1.0 3.0 0.00 0.00 0.00 58 1015.2
20180624141348 61 191 4.0 5.0 0.00 0.00 0.00 61 1015.2
20180624140833 61 188 3.0 4.0 0.00 0.00 0.00 61 1015.2
20180624140336 61 195 2.0 4.0 0.00 0.00 0.00 61 1015.2
20180624135817 61 191 2.0 4.0 0.00 0.00 0.00 61 1015.2
20180624135324 61 192 1.0 3.0 0.00 0.00 0.00 61 1015.2
20180624134834 61 186 2.0 5.0 0.00 0.00 0.00 60 1015.0
20180624133808 62 184 3.0 5.0 0.00 0.00 0.00 60 1015.0
20180624133313 61 189 2.0 5.0 0.00 0.00 0.00 60 1014.8
20180624132820 62 192 2.0 3.0 0.00 0.00 0.00 61 1014.8
20180624132328 61 192 2.0 3.0 0.00 0.00 0.00 63 1014.8
20180624131836 61 193 2.0 3.0 0.00 0.00 0.00 64 1014.9
20180624131344 60 188 2.0 3.0 0.00 0.00 0.00 64 1014.9
20180624130847 60 185 2.0 7.0 0.00 0.00 0.00 65 1014.9
20180624130348 60 185 5.0 7.0 0.00 0.00 0.00 65 1014.5
20180624125310 60 116 2.0 3.0 0.00 0.00 0.00 67 1014.5
20180624124817 59 178 1.0 3.0 0.00 0.00 0.00 68 1014.1
20180624124325 59 123 2.0 6.0 0.00 0.00 0.00 69 1014.1
20180624123829 59 241 2.0 6.0 0.00 0.00 0.00 69 1014.1
20180624123327 59 188 1.0 7.0 0.00 0.00 0.00 69 1013.8
20180624122353 58 174 2.0 7.0 0.00 0.00 0.00 69 1013.8
20180624121841 58 185 1.0 7.0 0.00 0.00 0.00 69 1013.7
20180624121328 58 178 6.0 7.0 0.00 0.00 0.00 69 1013.7
20180624120354 58 130 2.0 8.0 0.00 0.00 0.00 69 1013.1
20180624115350 58 128 2.0 3.0 0.00 0.00 0.00 68 1013.1
20180624114834 58 192 2.0 5.0 0.00 0.00 0.00 69 1013.7
20180624114322 58 196 1.0 5.0 0.00 0.00 0.00 69 1013.7
20180624113810 58 191 1.0 3.0 0.00 0.00 0.00 69 1013.7
20180624113314 58 196 2.0 3.0 0.00 0.00 0.00 69 1014.9
20180624112814 58 272 2.0 2.0 0.00 0.00 0.00 70 1014.9
20180624112314 58 291 2.0 2.0 0.00 0.00 0.00 70 1014.9
20180624111819 58 291 0.0 0.0 0.00 0.00 0.00 70 1014.3
20180624111326 58 291 0.0 0.0 0.00 0.00 0.00 70 1014.3
20180624110835 58 291 0.0 0.0 0.00 0.00 0.00 71 1014.3
20180624110345 58 291 0.0 2.0 0.00 0.00 0.00 71 1014.6
20180624105829 58 291 0.0 2.0 0.00 0.00 0.00 71 1014.6
20180624105331 57 291 0.0 0.0 0.00 0.00 0.00 71 1014.6
20180624104310 58 291 0.0 0.0 0.00 0.00 0.00 71 1014.5
20180624103818 58 291 0.0 0.0 0.00 0.00 0.00 69 1014.5
20180624103325 58 291 0.0 0.0 0.00 0.00 0.00 69 1014.9
20180624102308 58 291 1.0 2.0 0.00 0.00 0.00 68 1014.9
20180624101807 58 291 2.0 2.0 0.00 0.00 0.00 68 1015.2
20180624101312 58 291 0.0 1.0 0.00 0.00 0.00 68 1015.2
20180624100902 58 291 0.0 2.0 0.00 0.00 0.00 68 1015.2
20180624100351 58 291 1.0 2.0 0.00 0.00 0.00 68 1015.0
20180624095358 58 291 0.0 0.0 0.00 0.00 0.00 68 1015.0
20180624094857 58 291 0.0 0.0 0.00 0.00 0.00 68 1014.5
20180624094357 58 291 0.0 0.0 0.00 0.00 0.00 68 1014.5
20180624093858 58 291 0.0 0.0 0.00 0.00 0.00 67 1014.5
20180624093404 58 291 0.0 0.0 0.00 0.00 0.00 67 1014.2
20180624092812 59 291 0.0 0.0 0.00 0.00 0.00 66 1014.2
20180624092321 59 291 0.0 1.0 0.00 0.00 0.00 65 1014.2
20180624091827 59 291 0.0 3.0 0.00 0.00 0.00 65 1014.8
20180624091328 59 291 1.0 3.0 0.00 0.00 0.00 64 1014.8
20180624090831 59 291 0.0 1.0 0.00 0.00 0.00 64 1014.8
20180624090325 60 291 0.0 1.0 0.00 0.00 0.00 63 1014.3
20180624085818 60 291 0.0 5.0 0.00 0.00 0.00 62 1014.3
20180624085326 60 291 3.0 5.0 0.00 0.00 0.00 62 1014.3
20180624084313 60 298 2.0 4.0 0.00 0.00 0.00 61 1014.5
20180624083814 60 295 3.0 8.0 0.00 0.00 0.00 61 1014.5
20180624083359 60 298 6.0 8.0 0.00 0.00 0.00 61 1015.5
20180624082846 61 316 4.0 8.0 0.00 0.00 0.00 61 1015.5